Weather History for CYMX - October, 2012

Change the Weather History Date:

Tuesday, October 16, 2012

  Actual Average Record
Temperature  
Mean Temperature 42 °F -  
Max Temperature 48 °F 51 °F 64 °F (1999)
Min Temperature 33 °F 35 °F 30 °F (2000)
Degree Days  
Heating Degree Days 24    
Moisture  
Dew Point 34 °F    
Average Humidity 72    
Maximum Humidity 93    
Minimum Humidity 57    
Precipitation  
Precipitation 0.00 in - - ()
Sea Level Pressure  
Sea Level Pressure 29.74 in    
Wind  
Wind Speed 7 mph ()    
Max Wind Speed 14 mph    
Max Gust Speed 23 mph    
Averages and records for this station are not official NWS values.
T = Trace of Precipitation, MM = Missing Value Source: Averaged Metar Reports

Daily Weather History Graph

Daily Weather History Graph

Search for Another Location

Airport or City:

Trip Planner

Search our weather history database for the weather conditions in past years. The results will help you decide how hot, cold, wet, or windy it might be!

Date:

Astronomy

Oct. 16, 2012 Rise Set
Actual Time 7:14 AM EDT 6:07 PM EDT
Civil Twilight 6:44 AM EDT 6:37 PM EDT
Nautical Twilight 6:10 AM EDT 7:12 PM EDT
Astronomical Twilight 5:35 AM EDT 7:46 PM EDT
Moon 8:40 AM EDT (10/16) 6:42 PM EDT (10/16)
Length of Visible Light 11h 53m
Length of Day
10h 53m
New Moon, 2% of the Moon is Illuminated
Oct 16
New Moon
Oct 21
First Quarter
Oct 29
Full
Nov 6
Last Quarter
Nov 13
New

Hourly Weather History & Observations

Time (EDT) Temp. Windchill Dew Point Humidity Pressure Visibility Wind Dir Wind Speed Gust Speed Precip Events Conditions
12:00 AM 48.2 °F - 41.0 °F 76% 29.59 in 25.0 mi West 9.2 mph - N/A   Mostly Cloudy
1:00 AM 46.4 °F 42.4 °F 37.4 °F 71% 29.61 in 25.0 mi WSW 8.1 mph - N/A   Overcast
2:00 AM 44.6 °F 39.7 °F 37.4 °F 76% 29.63 in 25.0 mi WSW 9.2 mph - N/A   Scattered Clouds
3:00 AM 42.8 °F 37.5 °F 35.6 °F 76% 29.62 in 25.0 mi SW 9.2 mph - N/A   Mostly Cloudy
4:00 AM 42.8 °F 37.0 °F 37.4 °F 81% 29.62 in 25.0 mi WSW 10.4 mph 17.3 mph N/A   Mostly Cloudy
5:00 AM 41.0 °F 35.8 °F 39.2 °F 93% 29.64 in 25.0 mi West 8.1 mph - N/A   Overcast
6:00 AM 41.0 °F 35.2 °F 35.6 °F 81% 29.68 in 25.0 mi West 9.2 mph - N/A   Overcast
7:00 AM 39.2 °F 33.6 °F 33.8 °F 81% 29.69 in 25.0 mi West 8.1 mph 18.4 mph N/A   Mostly Cloudy
8:00 AM 39.2 °F 35.0 °F 33.8 °F 81% 29.72 in 25.0 mi West 5.8 mph - N/A   Scattered Clouds
9:00 AM 41.0 °F 35.8 °F 33.8 °F 76% 29.74 in 45.0 mi West 8.1 mph - N/A   Mostly Cloudy
9:16 AM 42.8 °F 37.5 °F 33.8 °F 70% 29.74 in 45.0 mi NW 9.2 mph 21.9 mph N/A Rain Light Rain Showers
10:00 AM 42.8 °F 37.5 °F 33.8 °F 70% 29.73 in 45.0 mi NW 9.2 mph 23.0 mph N/A   Mostly Cloudy
10:37 AM 44.6 °F 40.7 °F 33.8 °F 66% 29.74 in 45.0 mi NW 6.9 mph 18.4 mph N/A   Mostly Cloudy
11:00 AM 44.6 °F 39.2 °F 33.8 °F 66% 29.75 in 45.0 mi NW 10.4 mph 20.7 mph N/A   Mostly Cloudy
12:00 PM 44.6 °F 39.2 °F 33.8 °F 66% 29.76 in 45.0 mi WNW 10.4 mph 21.9 mph N/A   Mostly Cloudy
1:00 PM 44.6 °F 38.1 °F 32.0 °F 61% 29.76 in 45.0 mi West 13.8 mph 21.9 mph N/A   Mostly Cloudy
2:00 PM 46.4 °F 41.1 °F 32.0 °F 57% 29.77 in 45.0 mi West 11.5 mph 19.6 mph N/A   Mostly Cloudy
3:00 PM 46.4 °F 41.1 °F 33.8 °F 62% 29.78 in 45.0 mi West 11.5 mph 18.4 mph N/A   Mostly Cloudy
4:00 PM 46.4 °F 41.5 °F 33.8 °F 62% 29.78 in 45.0 mi West 10.4 mph 21.9 mph N/A   Mostly Cloudy
5:00 PM 46.4 °F 42.9 °F 32.0 °F 57% 29.79 in 45.0 mi West 6.9 mph - N/A   Mostly Cloudy
6:00 PM 42.8 °F 39.3 °F 30.2 °F 61% 29.81 in 45.0 mi WNW 5.8 mph - N/A   Partly Cloudy
7:00 PM 41.0 °F 39.0 °F 30.2 °F 65% 29.83 in 25.0 mi WNW 3.5 mph - N/A   Partly Cloudy
8:00 PM 39.2 °F - 30.2 °F 70% 29.84 in 25.0 mi Calm Calm - N/A   Partly Cloudy
9:00 PM 35.6 °F - 30.2 °F 81% 29.86 in 25.0 mi SW 2.3 mph - N/A   Partly Cloudy
10:00 PM 35.6 °F 32.8 °F 30.2 °F 81% 29.86 in 25.0 mi WSW 3.5 mph - N/A   Partly Cloudy
11:00 PM 33.8 °F 30.8 °F 28.4 °F 81% 29.88 in 25.0 mi SW 3.5 mph - N/A   Clear